SCP
0 0 0 0 0 0 0 0 0 0 0 0 0 0 0 0 0 0 0 0 0 0 0 0 0 0 0 0 0 0 0 0 0 0 0 0 0 0 0 0 0 0 0
0 0 0 0 0 0 0 0 0 0 0 0 0 0 0 0 0 0 0 0 0 0 0 0 0 0 0 0 0 0 0 0 0 0 0 0 0 0 0 0 0 0 0
0 0 0 0 1 0 0 0 0 0 0 0 0 0 0 0 0 0 0 0 0 0 0 0 0 0 0 0 0 0 0 0 0 0 0 0 0 0 0 0 0 0 0
0 0 0 0 1 0 0 0 0 0 0 0 0 0 0 0 0 0 0 0 0 0 0 0 0 0 0 0 0 0 0 0 0 0 0 0 0 0 0 0 0 0 0
0 0 0 0 1 0 0 0 0 0 0 0 0 0 0 0 0 0 0 0 0 0 0 0 0 0 0 0 0 0 0 0 0 0 0 0 0 0 0 0 0 0 0
0 0 0 1 1 1 0 0 0 0 0 0 0 0 0 0 0 0 0 0 0 0 0 0 0 0 0 0 0 0 0 0 0 0 0 0 0 0 0 0 0 0 0
0 0 1 1 1 1 1 0 0 0 0 0 0 0 0 0 0 0 0 0 0 0 0 0 0 0 0 0 0 0 0 0 0 0 0 0 0 0 0 0 0 0 0
0 0 1 1 1 1 1 1 0 0 0 0 0 0 0 0 0 0 0 0 0 0 0 0 0 0 0 0 0 0 0 0 0 0 0 0 0 0 0 0 0 0 0
0 0 1 1 1 1 1 1 1 0 0 0 0 0 0 0 0 0 0 0 0 0 0 0 0 0 0 0 0 0 0 0 0 0 0 0 0 0 0 0 0 0 0
1 1 1 1 1 1 1 1 1 0 0 0 0 0 0 0 0 0 0 0 0 0 0 0 0 0 0 0 0 0 0 0 0 0 0 0 0 0 0 0 0 0 0
1 1 1 1 1 1 1 1 0 0 0 0 0 0 0 0 0 0 0 0 0 0 0 0 0 0 0 0 0 0 0 0 0 0 0 0 0 0 0 0 0 0 0
1 1 1 1 1 1 1 1 0 0 0 0 0 1 0 0 0 0 0 0 0 0 0 0 0 0 0 0 0 0 0 0 0 0 0 0 0 0 0 0 0 0 0
1 1 1 1 1 1 1 1 0 0 0 1 1 1 1 0 0 0 0 0 0 0 0 0 0 0 0 0 0 0 0 0 0 0 0 0 0 0 0 0 0 0 0
1 1 1 1 1 1 1 1 1 1 1 1 1 1 1 1 1 0 0 0 0 0 0 0 0 0 0 0 0 0 0 0 0 0 0 0 0 0 0 0 0 0 0
1 1 1 1 1 1 1 1 1 1 1 1 1 1 1 1 1 1 1 0 0 0 0 0 0 0 0 0 0 0 0 0 0 0 0 0 0 0 0 0 0 0 0
1 1 1 1 1 1 1 1 1 1 1 1 1 1 1 1 1 1 1 1 0 0 0 0 0 0 0 0 0 0 0 0 0 0 0 0 0 0 0 0 0 0 0
1 1 1 1 1 1 1 1 1 1 1 1 1 1 1 1 1 1 1 1 1 0 0 0 0 0 0 0 0 0 0 0 0 0 0 0 0 0 0 0 0 0 0
1 1 1 1 1 1 1 1 1 1 2 2 2 1 1 1 1 1 1 1 1 0 0 0 0 0 0 0 0 0 0 0 0 0 0 0 0 0 0 0 0 0 0
1 1 1 1 1 1 1 1 1 2 2 2 2 2 2 2 1 1 1 1 1 1 0 0 0 0 0 0 0 0 0 0 0 0 0 0 0 0 0 0 0 0 0
1 1 1 1 1 1 1 1 2 2 2 2 2 2 2 2 2 1 1 1 1 1 0 0 0 0 0 0 0 0 0 0 0 0 0 0 0 0 0 0 0 0 0
1 1 1 1 1 1 1 2 2 2 2 2 2 2 2 2 2 1 1 1 1 1 0 0 0 0 0 0 0 0 0 0 0 0 0 0 0 0 0 0 0 0 0
1 1 1 1 1 1 1 2 2 1 2 2 2 2 2 2 2 2 1 1 1 1 0 0 0 0 0 0 0 0 0 0 0 0 0 0 0 0 0 0 0 0 0
1 1 1 1 1 1 1 1 1 1 1 1 2 2 2 2 2 2 2 1 1 1 1 0 0 0 0 0 0 0 0 0 0 0 0 0 0 0 0 0 0 0 0
1 1 1 1 0 1 1 1 1 1 1 1 1 1 2 1 1 2 2 1 1 1 1 1 1 0 0 0 0 0 0 0 0 0 0 0 0 0 0 0 0 0 0
1 1 1 1 0 1 1 1 1 1 1 1 1 1 1 1 1 1 1 1 1 1 1 1 1 0 0 0 0 0 0 0 0 0 0 0 0 0 0 0 0 0 0
0 0 0 1 1 1 1 1 1 1 1 1 1 1 1 1 1 1 1 0 0 0 0 0 0 0 0 0 0 0 0 0 0 0 0 0 0 0 0 0 0 0 0
Wind_Speed
7 6 7 7 7 7 7 7 6 5 5 3 3 2 2 2 1 2 3 3 3 3 3 3 3 3 2 3 3 2 2 1 1 1 1 1 1 1 1 2 2 3 3
6 7 7 8 8 8 8 7 7 6 6 4 3 2 2 2 2 1 1 3 3 4 4 4 3 3 3 3 3 3 2 1 2 2 1 1 2 1 1 1 2 2 2
10 9 9 9 8 9 9 9 8 7 6 5 3 2 2 1 1 1 1 2 3 3 3 4 4 3 3 3 4 4 4 3 2 2 3 2 2 1 1 1 1 1 2
9 9 9 9 10 10 8 7 7 7 6 6 5 5 4 3 3 2 2 2 2 3 3 4 4 4 3 4 4 4 3 3 2 2 2 2 3 2 1 1 1 1 2
10 11 11 11 9 8 8 7 6 6 6 6 7 6 4 3 2 2 2 2 2 2 3 3 4 4 3 4 4 3 4 3 3 3 2 2 1 2 2 2 1 1 1
9 9 8 7 6 6 6 6 7 6 6 7 6 6 6 4 3 3 3 2 1 1 2 3 3 3 3 4 4 4 4 4 4 3 3 3 3 3 3 3 2 2 1
9 8 9 9 8 8 8 7 7 6 6 6 6 6 6 6 6 4 4 3 2 2 2 3 3 3 3 3 3 3 3 4 4 4 3 3 3 2 3 2 2 2 1
8 9 10 9 9 10 9 8 8 7 7 7 6 5 5 4 4 4 4 4 3 3 3 3 3 3 3 3 3 2 3 3 4 4 4 3 3 3 3 3 3 2 1
7 8 8 8 8 9 9 10 9 7 7 7 6 5 5 5 5 4 4 3 3 3 3 4 3 3 3 3 3 2 3 2 3 3 3 3 2 3 3 3 3 3 3
6 6 7 8 8 8 8 7 8 8 7 7 6 6 6 6 5 4 5 4 4 3 3 3 3 3 3 3 3 2 2 3 2 2 2 2 2 2 2 3 3 3 3
7 7 6 6 7 6 7 7 7 6 6 7 6 5 5 5 5 5 5 5 4 4 4 4 4 3 3 2 2 2 3 3 2 2 2 1 1 1 2 2 2 2 2
6 6 6 6 6 7 7 7 7 7 7 6 6 6 5 5 5 5 5 4 4 4 4 4 3 3 3 2 3 3 3 3 3 2 2 1 1 1 1 1 2 2 2
4 4 5 6 6 6 6 6 6 7 6 6 6 6 6 6 6 5 4 4 4 4 3 3 3 3 3 3 3 3 3 3 3 2 2 2 2 1 1 1 2 1 2
4 4 4 4 5 5 5 5 5 5 5 6 6 6 7 7 6 5 4 4 4 4 4 3 3 3 3 3 3 3 3 2 2 2 2 2 3 2 2 2 2 2 2
2 3 4 4 4 4 4 5 4 4 5 5 6 6 5 5 5 4 4 4 4 4 3 3 3 3 3 3 3 3 3 3 3 2 2 2 2 3 2 2 2 3 2
2 2 3 3 4 4 4 5 5 5 6 6 5 3 3 4 5 5 5 4 4 3 3 3 3 3 2 3 4 3 3 3 3 3 2 2 2 2 2 3 3 4 3
2 2 2 3 3 4 4 4 4 4 5 5 4 3 4 4 5 5 5 5 5 4 4 3 3 3 3 4 4 4 3 3 3 3 2 1 1 1 2 3 3 2 2
1 1 1 2 2 2 2 2 3 4 4 4 4 4 4 4 4 4 5 4 4 4 4 4 4 3 3 4 5 4 3 2 2 2 2 2 1 2 3 3 3 2 2
1 2 1 1 1 2 2 3 3 3 4 4 4 5 5 5 4 4 5 4 4 4 3 3 4 4 4 5 5 4 2 2 1 1 1 2 2 3 4 3 3 2 1
1 1 1 2 1 1 2 3 3 3 3 3 4 4 5 5 5 4 4 3 3 4 4 3 4 4 3 4 5 5 2 2 2 1 1 1 2 3 4 3 3 2 1
2 2 2 1 0 0 3 3 2 2 2 2 2 3 4 5 5 4 3 2 2 3 3 3 2 3 3 3 5 5 3 3 3 2 1 1 2 3 3 3 2 3 2
2 2 2 2 2 1 2 3 1 1 1 2 2 3 3 3 3 4 4 3 3 2 2 2 2 1 2 3 4 5 5 4 3 3 2 2 3 3 3 2 3 3 3
1 1 2 2 2 1 1 2 2 0 1 2 1 2 3 2 3 4 4 4 4 3 3 3 3 2 2 2 4 5 6 6 3 2 3 3 4 3 2 2 3 3 2
1 1 2 2 1 1 1 2 1 0 2 2 1 1 2 2 2 2 3 3 4 4 4 4 3 3 2 2 2 3 3 4 3 2 3 4 4 3 2 2 1 1 2
1 1 1 0 1 1 2 2 1 0 1 1 1 1 1 2 1 0 0 2 2 4 5 4 4 4 4 4 5 4 3 3 3 4 3 2 2 2 1 1 1 1 1
1 1 1 1 1 0 1 1 1 0 1 0 1 1 1 1 1 1 1 3 1 1 2 3 3 2 3 4 5 5 5 5 7 5 2 2 2 2 2 2 1 1 1
Wind_Direction
206 184 182 175 170 173 178 182 181 174 160 154 160 160 185 187 194 208 211 200 192 185 179 188 178 176 182 189 173 158 158 169 148 110 16 353 348 283 249 234 226 227 223
189 185 181 178 180 184 187 187 189 182 180 177 169 164 159 175 190 210 214 210 195 193 192 186 187 186 180 180 179 163 159 185 171 149 122 335 337 353 317 251 228 231 221
197 189 185 186 186 192 193 193 193 188 186 174 141 116 94 83 133 211 219 220 204 199 194 188 186 187 183 192 194 181 176 190 200 179 161 173 229 288 318 289 252 236 228
196 188 187 188 195 199 192 190 187 186 183 170 170 169 175 188 205 198 205 224 215 205 199 192 191 193 192 198 205 194 188 179 200 200 203 193 174 181 270 299 275 256 243
193 190 191 192 195 189 184 185 179 182 180 179 182 182 189 193 187 177 197 222 227 217 208 198 193 200 204 204 203 195 194 191 195 193 187 188 186 186 197 252 268 276 254
192 189 183 176 180 175 177 177 176 185 183 184 184 188 191 187 184 194 203 220 226 224 213 204 199 201 205 210 209 204 202 204 203 201 193 186 184 193 192 220 245 262 267
182 178 175 177 179 179 181 179 179 189 186 185 191 193 193 189 196 199 200 205 215 218 217 210 208 207 211 209 203 205 213 211 208 208 211 210 212 189 183 195 220 241 264
181 184 185 182 182 182 181 180 184 189 185 188 195 194 191 190 198 196 195 204 212 217 210 203 209 212 207 205 196 205 215 212 214 218 212 214 219 203 193 185 181 213 233
182 185 182 181 182 183 185 185 186 189 189 190 190 191 193 195 200 195 195 205 211 213 202 199 204 213 207 196 189 203 214 212 214 217 216 220 224 213 210 198 192 194 216
177 181 180 181 184 184 184 179 183 192 193 190 192 196 197 201 199 190 200 207 209 207 197 201 201 206 207 198 191 196 203 200 216 218 217 218 216 209 207 206 208 207 204
179 180 180 179 177 173 174 178 185 189 194 196 195 195 196 197 194 199 208 207 206 199 198 201 196 202 209 204 193 202 193 191 204 206 196 200 183 193 201 198 196 198 188
177 170 168 164 165 172 180 186 190 193 199 195 190 196 195 192 198 208 210 202 203 200 197 193 193 202 205 195 191 195 187 188 195 202 184 200 188 192 204 197 198 193 185
163 156 159 167 174 180 184 189 194 199 196 185 187 192 196 198 205 209 205 199 198 193 185 183 191 195 192 188 190 188 190 193 195 193 191 197 181 204 211 201 194 186 176
153 155 166 176 178 180 179 187 193 190 186 186 192 199 202 203 206 202 197 195 190 185 183 183 185 188 187 190 192 193 192 193 194 194 196 197 200 206 203 197 192 178 164
149 163 168 175 176 179 177 179 187 182 180 182 194 207 205 197 194 192 189 184 183 187 180 171 175 179 184 196 196 199 194 192 193 198 208 217 212 193 185 182 181 168 160
172 183 172 175 176 180 182 182 189 185 175 182 199 198 192 197 194 192 184 179 184 180 168 178 185 185 200 209 197 190 191 194 197 204 213 225 223 200 176 166 156 155 166
191 201 195 193 192 190 179 181 187 172 168 175 187 190 194 202 200 193 182 183 185 178 174 185 189 199 213 207 204 194 183 194 205 207 208 218 189 145 132 130 124 121 141
248 253 226 198 194 179 161 160 144 151 162 167 175 183 191 200 188 182 189 181 180 181 187 191 192 199 213 203 202 189 172 183 197 200 200 194 179 157 145 132 115 101 91
253 235 226 208 130 128 139 134 139 155 160 171 185 189 187 188 185 192 196 185 182 185 185 182 187 197 207 199 194 180 168 170 175 168 173 174 175 166 149 140 137 128 98
18 19 40 64 82 108 134 139 150 158 177 189 196 189 178 177 184 197 200 186 185 196 189 186 188 193 202 195 188 183 171 174 179 164 157 164 179 169 157 157 157 165 188
47 52 49 61 17 82 125 136 153 189 199 176 165 168 174 183 178 171 174 169 176 191 192 191 195 196 203 200 195 190 187 189 186 190 179 162 162 167 165 163 171 183 158
56 63 53 32 19 43 121 129 178 232 155 143 146 152 167 176 167 162 162 167 177 185 199 208 223 223 216 204 202 198 199 186 184 194 181 162 155 155 157 157 150 144 134
54 84 77 40 17 345 147 176 227 167 123 133 141 146 152 157 155 170 174 175 187 193 200 205 226 238 226 219 208 197 193 188 187 182 163 154 148 141 131 144 152 148 146
314 70 70 45 338 327 341 289 283 134 125 132 140 127 125 132 152 177 183 190 197 202 203 204 219 227 219 220 205 191 180 174 176 161 135 129 126 123 117 116 134 153 166
317 24 61 316 292 339 5 347 332 101 120 118 102 98 119 136 145 138 276 219 223 214 205 209 204 202 214 214 203 187 183 178 165 141 129 130 134 132 130 132 146 161 164
315 306 274 265 271 317 355 333 333 48 133 113 64 88 112 116 127 124 52 41 49 160 173 191 196 206 199 173 165 172 169 154 145 136 148 158 167 178 187 192 196 191 197